Time,TemperatureF,DewpointF,PressureIn,WindDirection,WindDirectionDegrees,WindSpeedMPH,WindSpeedGustMPH,Humidity,HourlyPrecipIn,Conditions,Clouds,dailyrainin,SoftwareType,DateUTC
2013-01-16 00:15:00,37.4,12.3,30.34,WNW,292,2.2,-999.0,35,-99.99,,,0.00,Acu-Link.com,2013-01-16 08:15:00,
2013-01-16 00:30:00,38.3,11.1,30.33,South,180,4.7,-999.0,32,-99.99,,,0.00,Acu-Link.com,2013-01-16 08:30:00,
2013-01-16 00:46:00,39.4,11.3,30.32,South,180,1.1,-999.0,31,-99.99,,,0.00,Acu-Link.com,2013-01-16 08:46:00,
2013-01-16 01:22:00,38.3,11.1,30.32,NE,45,0.0,-999.0,32,-99.99,,,0.00,Acu-Link.com,2013-01-16 09:22:00,
2013-01-16 01:37:00,37.4,11.6,30.32,NNW,337,0.0,-999.0,34,-99.99,,,0.00,Acu-Link.com,2013-01-16 09:37:00,
2013-01-16 01:53:00,37.8,13.9,30.31,NE,45,0.0,-999.0,37,-99.99,,,0.00,Acu-Link.com,2013-01-16 09:53:00,
2013-01-16 02:08:00,36.7,12.3,30.33,West,270,2.7,-999.0,36,-99.99,,,0.00,Acu-Link.com,2013-01-16 10:08:00,
2013-01-16 02:23:00,36.3,12.6,30.33,West,270,3.2,-999.0,37,-99.99,,,0.00,Acu-Link.com,2013-01-16 10:23:00,
2013-01-16 02:39:00,37.6,14.3,30.32,SSE,157,0.0,-999.0,38,-99.99,,,0.00,Acu-Link.com,2013-01-16 10:39:00,
2013-01-16 02:54:00,41.7,15.4,30.31,SW,225,4.7,-999.0,34,-99.99,,,0.00,Acu-Link.com,2013-01-16 10:54:00,
2013-01-16 03:09:00,40.3,13.5,30.31,NW,315,0.0,-999.0,33,-99.99,,,0.00,Acu-Link.com,2013-01-16 11:09:00,
2013-01-16 03:25:00,40.3,15.5,30.31,SSW,202,1.7,-999.0,36,-99.99,,,0.00,Acu-Link.com,2013-01-16 11:25:00,
2013-01-16 03:40:00,39.7,15.6,30.31,WNW,292,1.7,-999.0,37,-99.99,,,0.00,Acu-Link.com,2013-01-16 11:40:00,
2013-01-16 04:11:00,38.1,14.8,30.30,SSW,202,3.2,-999.0,38,-99.99,,,0.00,Acu-Link.com,2013-01-16 12:11:00,
2013-01-16 04:26:00,39.4,16.5,30.29,SSW,202,3.2,-999.0,39,-99.99,,,0.00,Acu-Link.com,2013-01-16 12:26:00,
2013-01-16 04:41:00,41.5,17.8,30.29,South,180,2.7,-999.0,38,-99.99,,,0.00,Acu-Link.com,2013-01-16 12:41:00,
2013-01-16 04:57:00,41.0,15.5,30.29,SSW,202,2.7,-999.0,35,-99.99,,,0.00,Acu-Link.com,2013-01-16 12:57:00,
2013-01-16 05:12:00,40.6,16.4,30.30,South,180,1.7,-999.0,37,-99.99,,,0.00,Acu-Link.com,2013-01-16 13:12:00,
2013-01-16 05:27:00,39.7,16.8,30.31,ENE,67,1.1,-999.0,39,-99.99,,,0.00,Acu-Link.com,2013-01-16 13:27:00,
2013-01-16 05:42:00,39.7,16.8,30.31,South,180,3.2,-999.0,39,-99.99,,,0.00,Acu-Link.com,2013-01-16 13:42:00,
2013-01-16 05:58:00,40.8,16.6,30.31,South,180,3.7,-999.0,37,-99.99,,,0.00,Acu-Link.com,2013-01-16 13:58:00,
2013-01-16 06:13:00,40.3,16.1,30.32,SW,225,1.7,-999.0,37,-99.99,,,0.00,Acu-Link.com,2013-01-16 14:13:00,
2013-01-16 06:28:00,39.9,15.1,30.31,SSE,157,1.7,-999.0,36,-99.99,,,0.00,Acu-Link.com,2013-01-16 14:28:00,
2013-01-16 06:44:00,39.0,16.8,30.31,NW,315,3.7,-999.0,40,-99.99,,,0.00,Acu-Link.com,2013-01-16 14:44:00,
2013-01-16 06:59:00,38.5,14.5,30.32,West,270,1.7,-999.0,37,-99.99,,,0.00,Acu-Link.com,2013-01-16 14:59:00,
2013-01-16 07:14:00,39.2,14.5,30.32,SW,225,2.7,-999.0,36,-99.99,,,0.00,Acu-Link.com,2013-01-16 15:14:00,
2013-01-16 07:30:00,40.5,14.4,30.32,SW,225,2.7,-999.0,34,-99.99,,,0.00,Acu-Link.com,2013-01-16 15:30:00,
2013-01-16 07:45:00,42.3,16.6,30.32,SSW,202,2.2,-999.0,35,-99.99,,,0.00,Acu-Link.com,2013-01-16 15:45:00,
2013-01-16 08:00:00,44.1,18.2,30.33,South,180,0.0,-999.0,35,-99.99,,,0.00,Acu-Link.com,2013-01-16 16:00:00,
2013-01-16 08:16:00,47.7,18.6,30.33,South,180,4.7,-999.0,31,-99.99,,,0.00,Acu-Link.com,2013-01-16 16:16:00,
2013-01-16 08:31:00,48.9,18.8,30.33,SSE,157,4.7,-999.0,30,-99.99,,,0.00,Acu-Link.com,2013-01-16 16:31:00,
2013-01-16 08:46:00,50.2,18.4,30.32,SSE,157,1.7,-999.0,28,-99.99,,,0.00,Acu-Link.com,2013-01-16 16:46:00,
2013-01-16 09:02:00,51.4,18.6,30.33,ESE,112,2.2,-999.0,27,-99.99,,,0.00,Acu-Link.com,2013-01-16 17:02:00,
2013-01-16 09:17:00,52.5,17.7,30.33,South,180,2.2,-999.0,25,-99.99,,,0.00,Acu-Link.com,2013-01-16 17:17:00,
2013-01-16 09:32:00,53.6,15.7,30.33,ESE,112,4.7,-999.0,22,-99.99,,,0.00,Acu-Link.com,2013-01-16 17:32:00,
2013-01-16 09:48:00,54.5,17.5,30.32,South,180,4.2,-999.0,23,-99.99,,,0.00,Acu-Link.com,2013-01-16 17:48:00,
2013-01-16 10:03:00,54.9,16.8,30.32,South,180,5.8,-999.0,22,-99.99,,,0.00,Acu-Link.com,2013-01-16 18:03:00,
2013-01-16 10:19:00,55.6,17.4,30.31,SSE,157,4.7,-999.0,22,-99.99,,,0.00,Acu-Link.com,2013-01-16 18:19:00,
2013-01-16 10:34:00,57.4,18.9,30.30,South,180,2.7,-999.0,22,-99.99,,,0.00,Acu-Link.com,2013-01-16 18:34:00,
2013-01-16 10:50:00,57.6,18.0,30.30,South,180,2.7,-999.0,21,-99.99,,,0.00,Acu-Link.com,2013-01-16 18:50:00,
2013-01-16 11:05:00,57.9,19.3,30.28,SSE,157,4.7,-999.0,22,-99.99,,,0.00,Acu-Link.com,2013-01-16 19:05:00,
2013-01-16 11:20:00,59.2,20.4,30.27,ESE,112,3.7,-999.0,22,-99.99,,,0.00,Acu-Link.com,2013-01-16 19:20:00,
2013-01-16 11:36:00,59.7,20.8,30.25,SSE,157,3.7,-999.0,22,-99.99,,,0.00,Acu-Link.com,2013-01-16 19:36:00,
2013-01-16 11:51:00,61.5,22.3,30.24,South,180,5.8,-999.0,22,-99.99,,,0.00,Acu-Link.com,2013-01-16 19:51:00,
2013-01-16 12:06:00,61.9,22.6,30.24,SSE,157,4.2,-999.0,22,-99.99,,,0.00,Acu-Link.com,2013-01-16 20:06:00,
2013-01-16 12:22:00,62.4,23.1,30.23,South,180,4.2,-999.0,22,-99.99,,,0.00,Acu-Link.com,2013-01-16 20:22:00,
2013-01-16 12:37:00,63.3,22.7,30.22,SSW,202,5.3,-999.0,21,-99.99,,,0.00,Acu-Link.com,2013-01-16 20:37:00,
2013-01-16 12:52:00,64.0,23.3,30.21,SE,135,6.3,-999.0,21,-99.99,,,0.00,Acu-Link.com,2013-01-16 20:52:00,
2013-01-16 13:07:00,65.7,24.7,30.20,WSW,247,3.7,-999.0,21,-99.99,,,0.00,Acu-Link.com,2013-01-16 21:07:00,
2013-01-16 13:23:00,66.7,23.1,30.18,ESE,112,2.7,-999.0,19,-99.99,,,0.00,Acu-Link.com,2013-01-16 21:23:00,
2013-01-16 13:38:00,68.2,24.4,30.16,South,180,3.2,-999.0,19,-99.99,,,0.00,Acu-Link.com,2013-01-16 21:38:00,
2013-01-16 13:53:00,68.9,22.3,30.16,SW,225,2.2,-999.0,17,-99.99,,,0.00,Acu-Link.com,2013-01-16 21:53:00,
2013-01-16 14:09:00,69.3,21.2,30.16,South,180,2.7,-999.0,16,-99.99,,,0.00,Acu-Link.com,2013-01-16 22:09:00,
2013-01-16 14:24:00,70.0,23.2,30.15,South,180,4.2,-999.0,17,-99.99,,,0.00,Acu-Link.com,2013-01-16 22:24:00,
2013-01-16 14:39:00,68.9,22.3,30.16,East,90,3.2,-999.0,17,-99.99,,,0.00,Acu-Link.com,2013-01-16 22:39:00,
2013-01-16 14:54:00,69.6,22.9,30.15,SSW,202,2.7,-999.0,17,-99.99,,,0.00,Acu-Link.com,2013-01-16 22:54:00,
2013-01-16 15:10:00,69.3,19.7,30.15,SSW,202,2.2,-999.0,15,-99.99,,,0.00,Acu-Link.com,2013-01-16 23:10:00,
2013-01-16 15:25:00,68.2,21.7,30.15,South,180,2.7,-999.0,17,-99.99,,,0.00,Acu-Link.com,2013-01-16 23:25:00,
2013-01-16 15:41:00,69.1,22.5,30.15,South,180,2.7,-999.0,17,-99.99,,,0.00,Acu-Link.com,2013-01-16 23:41:00,
2013-01-16 15:56:00,66.4,21.6,30.15,WSW,247,1.7,-999.0,18,-99.99,,,0.00,Acu-Link.com,2013-01-16 23:56:00,
2013-01-16 16:11:00,64.8,24.0,30.16,East,90,2.7,-999.0,21,-99.99,,,0.00,Acu-Link.com,2013-01-17 00:11:00,
2013-01-16 16:27:00,63.3,24.9,30.16,ESE,112,2.2,-999.0,23,-99.99,,,0.00,Acu-Link.com,2013-01-17 00:27:00,
2013-01-16 16:42:00,61.9,25.7,30.17,South,180,2.7,-999.0,25,-99.99,,,0.00,Acu-Link.com,2013-01-17 00:42:00,
2013-01-16 16:57:00,60.4,25.4,30.18,South,180,2.2,-999.0,26,-99.99,,,0.00,Acu-Link.com,2013-01-17 00:57:00,
2013-01-16 17:12:00,59.9,24.0,30.18,SW,225,2.7,-999.0,25,-99.99,,,0.00,Acu-Link.com,2013-01-17 01:12:00,
2013-01-16 17:28:00,58.6,24.7,30.19,SSE,157,1.7,-999.0,27,-99.99,,,0.00,Acu-Link.com,2013-01-17 01:28:00,
2013-01-16 17:43:00,57.7,24.8,30.19,South,180,0.0,-999.0,28,-99.99,,,0.00,Acu-Link.com,2013-01-17 01:43:00,
2013-01-16 17:58:00,56.5,25.4,30.19,WNW,292,1.7,-999.0,30,-99.99,,,0.00,Acu-Link.com,2013-01-17 01:58:00,
2013-01-16 18:13:00,54.9,26.3,30.20,South,180,2.7,-999.0,33,-99.99,,,0.00,Acu-Link.com,2013-01-17 02:13:00,
2013-01-16 18:29:00,56.7,24.8,30.19,SSE,157,3.7,-999.0,29,-99.99,,,0.00,Acu-Link.com,2013-01-17 02:29:00,
2013-01-16 18:44:00,55.8,24.8,30.20,West,270,5.3,-999.0,30,-99.99,,,0.00,Acu-Link.com,2013-01-17 02:44:00,
2013-01-16 19:00:00,54.9,24.8,30.21,East,90,0.0,-999.0,31,-99.99,,,0.00,Acu-Link.com,2013-01-17 03:00:00,
2013-01-16 19:15:00,54.7,26.2,30.20,NNW,337,0.0,-999.0,33,-99.99,,,0.00,Acu-Link.com,2013-01-17 03:15:00,
2013-01-16 19:30:00,52.7,25.1,30.20,SSW,202,0.0,-999.0,34,-99.99,,,0.00,Acu-Link.com,2013-01-17 03:30:00,
2013-01-16 19:45:00,51.4,25.4,30.21,West,270,1.1,-999.0,36,-99.99,,,0.00,Acu-Link.com,2013-01-17 03:45:00,
2013-01-16 20:01:00,50.0,25.4,30.22,ENE,67,2.2,-999.0,38,-99.99,,,0.00,Acu-Link.com,2013-01-17 04:01:00,
2013-01-16 20:16:00,49.8,23.3,30.21,SW,225,1.7,-999.0,35,-99.99,,,0.00,Acu-Link.com,2013-01-17 04:16:00,
2013-01-16 20:31:00,49.5,23.7,30.21,WNW,292,0.0,-999.0,36,-99.99,,,0.00,Acu-Link.com,2013-01-17 04:31:00,
2013-01-16 20:47:00,50.5,22.5,30.21,NNW,337,1.7,-999.0,33,-99.99,,,0.00,Acu-Link.com,2013-01-17 04:47:00,
2013-01-16 21:02:00,50.9,22.8,30.20,SSW,202,1.7,-999.0,33,-99.99,,,0.00,Acu-Link.com,2013-01-17 05:02:00,
2013-01-16 21:17:00,50.2,24.3,30.19,SSE,157,0.0,-999.0,36,-99.99,,,0.00,Acu-Link.com,2013-01-17 05:17:00,
2013-01-16 21:33:00,48.9,22.5,30.19,North,0,2.7,-999.0,35,-99.99,,,0.00,Acu-Link.com,2013-01-17 05:33:00,
2013-01-16 21:48:00,50.9,19.8,30.19,NW,315,0.0,-999.0,29,-99.99,,,0.00,Acu-Link.com,2013-01-17 05:48:00,
2013-01-16 22:03:00,50.9,19.8,30.19,SW,225,2.7,-999.0,29,-99.99,,,0.00,Acu-Link.com,2013-01-17 06:03:00,
2013-01-16 22:18:00,51.1,19.1,30.19,WNW,292,2.7,-999.0,28,-99.99,,,0.00,Acu-Link.com,2013-01-17 06:18:00,
2013-01-16 22:34:00,50.5,18.6,30.19,NNW,337,0.0,-999.0,28,-99.99,,,0.00,Acu-Link.com,2013-01-17 06:34:00,
2013-01-16 22:49:00,49.3,18.4,30.19,NNW,337,1.1,-999.0,29,-99.99,,,0.00,Acu-Link.com,2013-01-17 06:49:00,
2013-01-16 23:04:00,48.9,18.1,30.19,West,270,0.0,-999.0,29,-99.99,,,0.00,Acu-Link.com,2013-01-17 07:04:00,
2013-01-16 23:20:00,50.5,17.8,30.18,West,270,2.2,-999.0,27,-99.99,,,0.00,Acu-Link.com,2013-01-17 07:20:00,
2013-01-16 23:35:00,51.3,16.7,30.18,West,270,3.2,-999.0,25,-99.99,,,0.00,Acu-Link.com,2013-01-17 07:35:00,
2013-01-16 23:50:00,51.6,16.9,30.18,SSW,202,1.7,-999.0,25,-99.99,,,0.00,Acu-Link.com,2013-01-17 07:50:00,